TimePST,TemperatureF,Dew PointF,Humidity,Sea Level PressureIn,VisibilityMPH,Wind Direction,Wind SpeedMPH,Gust SpeedMPH,PrecipitationIn,Events,Conditions,WindDirDegrees,DateUTC
12:56 AM,30.9,26.1,82,30.25,9.0,Calm,Calm,-,N/A,,Clear,0,2013-12-27 08:56:00
1:56 AM,30.0,25.0,82,30.26,10.0,Calm,Calm,-,N/A,,Clear,0,2013-12-27 09:56:00
2:56 AM,30.0,25.0,82,30.26,10.0,Calm,Calm,-,N/A,,Clear,0,2013-12-27 10:56:00
3:56 AM,30.9,25.0,79,30.26,10.0,Calm,Calm,-,N/A,,Clear,0,2013-12-27 11:56:00
4:56 AM,28.9,25.0,85,30.25,10.0,Calm,Calm,-,N/A,,Clear,0,2013-12-27 12:56:00
5:56 AM,28.0,24.1,85,30.25,10.0,Calm,Calm,-,N/A,,Clear,0,2013-12-27 13:56:00
6:56 AM,28.0,25.0,88,30.26,10.0,Calm,Calm,-,N/A,,Clear,0,2013-12-27 14:56:00
7:56 AM,28.9,25.0,85,30.27,5.0,Calm,Calm,-,N/A,,Clear,0,2013-12-27 15:56:00
8:56 AM,32.0,27.0,82,30.28,9.0,Calm,Calm,-,N/A,,Clear,0,2013-12-27 16:56:00
9:56 AM,36.0,30.0,79,30.29,10.0,Calm,Calm,-,N/A,,Clear,0,2013-12-27 17:56:00
10:56 AM,43.0,30.9,62,30.27,10.0,Calm,Calm,-,N/A,,Clear,0,2013-12-27 18:56:00
11:56 AM,48.0,28.9,48,30.24,10.0,Calm,Calm,-,N/A,,Clear,0,2013-12-27 19:56:00
12:56 PM,51.1,30.0,44,30.21,10.0,Calm,Calm,-,N/A,,Clear,0,2013-12-27 20:56:00
1:56 PM,53.1,30.0,41,30.19,10.0,Calm,Calm,-,N/A,,Clear,0,2013-12-27 21:56:00
2:56 PM,54.0,30.0,40,30.18,10.0,Calm,Calm,-,N/A,,Clear,0,2013-12-27 22:56:00
3:56 PM,53.1,32.0,45,30.17,10.0,Calm,Calm,-,N/A,,Clear,0,2013-12-27 23:56:00
4:56 PM,48.0,33.1,56,30.18,9.0,Calm,Calm,-,N/A,,Clear,0,2013-12-28 00:56:00
5:56 PM,44.1,32.0,63,30.19,10.0,Calm,Calm,-,N/A,,Clear,0,2013-12-28 01:56:00
6:56 PM,41.0,32.0,70,30.18,8.0,Calm,Calm,-,N/A,,Clear,0,2013-12-28 02:56:00
7:56 PM,37.0,30.9,79,30.19,7.0,North,3.5,-,N/A,,Clear,350,2013-12-28 03:56:00
8:56 PM,33.1,28.9,85,30.19,8.0,Calm,Calm,-,N/A,,Clear,0,2013-12-28 04:56:00
9:56 PM,34.0,28.9,82,30.19,9.0,SE,3.5,-,N/A,,Clear,140,2013-12-28 05:56:00
10:56 PM,34.0,28.9,82,30.18,6.0,Calm,Calm,-,N/A,,Haze,0,2013-12-28 06:56:00
11:56 PM,30.0,26.1,85,30.17,8.0,Calm,Calm,-,N/A,,Clear,0,2013-12-28 07:56:00